Location: Aalen
(48.8330°N, 10.1000°E)
Time: 16:52:43
(UTC+02:00)

UWE-3 - Pass Details

Date: 05 April 2023
Orbit: 576 x 669 km, 97.7° (Epoch: 02 June)

Event Time Altitude Azimuth Distance (km) Brightness Sun altitude
Rises 03:10:40 0° 27° (NNE) 2,957 ? -30.4°
Reaches altitude 10° 03:13:38 10° 48° (NE) 2,022 ? -30.1°
Maximum altitude 03:16:31 17° 89° (E) 1,583 ? -29.9°
Enters shadow 03:17:07 17° 100° (E) 1,599 ? -29.8°
